Location: Unspecified
(0.0000°N, 0.0000°E)
Time: 16:27:27
(UTC+00:00)

Hubble Space Telescope - Pass Details

Date: 19 September 2020
Orbit: 536 x 540 km, 28.5° (Epoch: 18 September)

Event Time Altitude Azimuth Distance (km) Brightness Sun altitude
Exits shadow 04:03:07 37° 64° (ENE) 827 2.1 -27.7°
Drops below altitude 10° 04:05:41 10° 61° (ENE) 1,772 4.2 -27.0°
Sets 04:07:56 0° 61° (ENE) 2,661 5.3 -26.4°
